www.pogodaiklimat.ru

Погода и климат >> Архив погоды >> Бельгия >> Бейтем


ПОГОДА в Бейтеме

  • Прогноз погоды в Бейтеме
  • Монитор погоды в Бейтеме

АРХИВ ПОГОДЫ в Бейтеме

Время (UTC), дата Ветер
(напр.,м/с)
 
Видим.   Явления Облачность Т
(С)
Тd
(С)
f
(%)
Тe
(С)
Тes
(С)
Комфортность P
(гПа)
Po
(гПа)
Тmin
(С)
Tmax
(С)
R
(мм)
R24
(мм)
S
(см)
01 18.06 н/о н/о +13.1 +11.8 92 1017.3 1014.2
02 18.06 СЗ 1 н/о н/о +11.8 +11.4 97 +12 +12 1017.2 1014.0
03 18.06 СЗ 1 н/о н/о +11.9 +11.7 99 +12 +12 1016.9 1013.7
04 18.06 штиль 0 н/о н/о +11.7 +11.4 98 +11 +11 1016.6 1013.4
05 18.06 штиль 0 н/о н/о +13.1 +12.7 97 +13 +13 1016.6 1013.4 13
06 18.06 С 1
{2}
н/о н/о +16.3 +13.7 85 +17 +17 1016.3 1013.2 +11.7 42
07 18.06 СВ 2 н/о н/о +18.0 +12.1 68 +19 +19 1016.3 1013.2 76
08 18.06 СВ 3 н/о н/о +19.1 +12.4 65 +20 +20 1015.8 1012.7 94
09 18.06 СВ 2 н/о н/о +20.4 +13.3 64 +23 +23 комфорт 1015.8 1012.7 117
10 18.06 В 1 н/о н/о +22.3 +14.6 62 +26 +26 жарко 1015.2 1012.1 192
11 18.06 Ю 2 н/о н/о +23.7 +15.1 59 +27 +27 жарко 1014.9 1011.9 225
12 18.06 В 2 н/о н/о +24.6 +15.3 56 +28 +28 душно 1014.2 1011.2 193
13 18.06 В 2 н/о н/о +25.7 +14.6 50 +28 +28 жарко 1013.6 1010.6 241
14 18.06 ЮВ 2 н/о н/о +26.7 +13.7 45 +29 +29 жарко 1013.0 1010.0 237
15 18.06 ЮВ 4 н/о н/о +26.7 +13.0 43 +28 +28 жарко 1012.3 1009.3 194
16 18.06 ЮВ 3 н/о н/о +26.5 +13.4 44 +28 +28 жарко 1011.8 1008.8 143
17 18.06 ЮВ 3 н/о н/о +26.2 +14.5 49 +29 +29 жарко 1011.4 1008.4 79
18 18.06 ЮВ 2
{6}
н/о н/о +25.8 +15.4 53 +29 +29 душно 1011.4 1008.4 +27.0 48
19 18.06 В 2 н/о н/о +24.9 +16.5 60 +28 +28 жарко 1010.8 1007.8 15
20 18.06 В 2 н/о н/о +24.0 +15.4 59 +27 +27 жарко 1010.6 1007.5 5
21 18.06 СВ 2 н/о н/о +21.1 +17.7 81 +25 +25 комфорт 1010.7 1007.7
22 18.06 В 1 н/о н/о +19.4 +17.6 89 +23 +23 комфорт 1010.1 1007.1
23 18.06 В 1 н/о н/о +18.5 +17.1 92 +20 +20 1009.3 1006.2
00 19.06 В 1 н/о н/о +17.8 +16.8 94 +19 +19 1008.8 1005.7 192
01 19.06 В 1 н/о н/о +17.5 +16.8 96 +19 +19 1008.2 1005.2
02 19.06 СЗ 5 н/о н/о +19.0 +16.1 83 +20 +20 1009.2 1006.1
03 19.06 С 5 н/о н/о +17.5 +13.7 78 +17 +17 1008.6 1005.5
04 19.06 СВ 4 н/о н/о +17.4 +14.0 80 +17 +17 1007.3 1004.2 1
05 19.06 С 3 н/о н/о +16.0 +15.0 94 +15 +15 1007.3 1004.2
06 19.06 В 3
{19}
н/о н/о +16.5 +15.4 93 +16 +16 1006.9 1003.8 +16.0 13
07 19.06 ЮВ 3 н/о н/о +18.6 +16.0 85 +20 +20 1006.8 1003.7 71
08 19.06 Ю 3 н/о н/о +19.2 +16.3 83 +21 +21 комфорт 1007.6 1004.5 68
09 19.06 С 2
{6}
н/о н/о +19.0 +16.6 86 +21 +21 комфорт 1008.2 1005.1
10 19.06 СВ 2 н/о н/о +19.1 +16.8 87 +21 +21 комфорт 1007.6 1004.6 43
11 19.06 В 3 н/о н/о +20.2 +17.0 82 +24 +24 комфорт 1007.4 1004.3 54
12 19.06 Ю 2
{6}
н/о н/о +21.6 +17.5 77 +26 +26 душно 1007.7 1004.7 121
13 19.06 ЮЗ 4 н/о н/о +22.8 +18.6 77 +29 +29 очень
душно
1007.3 1004.3 127
14 19.06 ЮЗ 4 н/о н/о +23.2 +18.9 77 +29 +29 душно 1007.3 1004.3 152
15 19.06 З 3 н/о н/о +21.2 +18.1 82 +25 +25 комфорт 1007.5 1004.4 71
16 19.06 ЮЗ 3 н/о н/о +21.1 +19.5 91 +26 +26 душно 1007.4 1004.3 47
17 19.06 СЗ 2 н/о н/о +20.6 +18.2 86 +25 +25 комфорт 1007.5 1004.4 45
18 19.06 С 3
{8}
н/о н/о +18.3 +16.5 89 +19 +19 1007.9 1004.8 +23.6 9
19 19.06 СВ 1 н/о н/о +16.9 +16.7 99 +18 +18 1008.5 1005.4 3
20 19.06 С 2 н/о н/о +16.6 +16.1 97 +17 +17 1009.1 1006.0 3
21 19.06 З 2 н/о н/о +16.6 +16.1 97 +17 +17 1009.9 1006.8
22 19.06 ЮЗ 3 н/о н/о +16.3 +16.0 98 +16 +16 1009.9 1006.8
23 19.06 ЮЗ 3 н/о н/о +15.7 +15.5 99 +15 +15 1010.4 1007.3
00 20.06 ЮЗ 3
{5}
н/о н/о +15.2 +14.7 97 +14 +14 1010.7 1007.6 89
01 20.06 ЮЗ 3 н/о н/о +14.7 +14.5 99 +14 +14 1010.8 1007.7
02 20.06 ЮЗ 3 н/о н/о +14.7 +14.3 97 +14 +14 1010.7 1007.6
03 20.06 ЮЗ 3 н/о н/о +14.5 +14.1 97 +13 +13 1010.8 1007.6
04 20.06 ЮЗ 3 н/о н/о +14.7 +13.8 94 +14 +14 1010.9 1007.8
05 20.06 ЮЗ 4 н/о н/о +14.8 +13.6 93 +14 +14 1011.3 1008.2 2
06 20.06 ЮЗ 3
{7}
н/о н/о +15.1 +13.8 92 +14 +14 1011.6 1008.5 +14.5 17 17
07 20.06 ЮЗ 5 н/о н/о +15.8 +14.0 89 +15 +15 1011.9 1008.7 62
08 20.06 ЮЗ 5 н/о н/о +16.1 +14.3 89 +15 +15 1012.2 1009.1 40
09 20.06 ЮЗ 5 н/о н/о +17.2 +14.8 86 +17 +17 1012.6 1009.5 70
10 20.06 З 5 н/о н/о +18.4 +14.0 76 +19 +19 1012.8 1009.7 156
11 20.06 З 5 н/о н/о +19.4 +13.6 69 +21 +21 комфорт 1013.2 1010.1 175
12 20.06 З 6 н/о н/о +19.6 +12.4 63 +21 +21 комфорт 1013.8 1010.7 164
13 20.06 З 6 н/о н/о +19.4 +11.6 61 +20 +20 1014.1 1011.0 113
14 20.06 З 6 н/о н/о +19.2 +11.2 60 +20 +20 1014.4 1011.3 198
15 20.06 ЮЗ 6 н/о н/о +19.2 +10.4 57 +20 +20 1014.7 1011.6 188
16 20.06 ЮЗ 5 н/о н/о +19.1 +9.8 55 +20 +20 1014.9 1011.8 141
17 20.06 З 5 н/о н/о +18.6 +9.9 57 +19 +19 1015.2 1012.1 113
18 20.06 З 5
{11}
н/о н/о +18.2 +10.3 60 +18 +18 1015.6 1012.5 +20.1 81
19 20.06 ЮЗ 5 н/о н/о +17.1 +9.6 61 +16 +16 1016.0 1012.8 43
20 20.06 З 3 н/о н/о +15.4 +9.5 68 +15 +15 1016.4 1013.2 9
21 20.06 ЮЗ 2 н/о н/о +13.6 +9.4 76 +13 +13 1017.0 1013.9
22 20.06 ЮЗ 3 н/о н/о +12.4 +9.9 85 +11 +11 1017.1 1013.9
23 20.06 ЮЗ 2 н/о н/о +11.4 +10.0 91 +10 +10 1017.6 1014.4
00 21.06 ЮЗ 3 н/о н/о +11.2 +10.2 94 +9 +9 1017.9 1014.8 158
01 21.06 ЮЗ 3 н/о н/о +10.9 +10.3 96 +9 +9 1018.1 1014.9
02 21.06 ЮЗ 2 н/о н/о +10.6 +10.1 97 +9 +9 1018.3 1015.1
03 21.06 ЮЗ 2 н/о н/о +10.0 +9.9 99 +8 +8 1018.4 1015.2
04 21.06 ЮЗ 2 н/о н/о +9.7 +9.7 100 +8 +8 1018.6 1015.4
05 21.06 ЮЗ 3 н/о н/о +10.6 +10.6 100 +8 +8 1018.9 1015.7 11
06 21.06 ЮЗ 3
{6}
н/о н/о +12.4 +11.7 95 +11 +11 1019.2 1016.0 +9.6 43
07 21.06 ЮЗ 3 н/о н/о +14.2 +12.4 89 +13 +13 1019.5 1016.3 83
08 21.06 З 4 н/о н/о +16.0 +11.1 73 +15 +15 1020.1 1016.9 124
09 21.06 СЗ 5 н/о н/о +17.1 +9.5 61 +16 +16 1020.1 1016.9 178
10 21.06 З 4 н/о н/о +17.6 +10.6 64 +17 +17 1020.4 1017.3 184
11 21.06 З 5 н/о н/о +17.6 +9.5 59 +17 +17 1020.6 1017.5 139
12 21.06 СЗ 4 н/о н/о +18.6 +10.8 60 +19 +19 1020.8 1017.7 171
13 21.06 СЗ 4 н/о н/о +18.9 +10.1 57 +20 +20 1020.9 1017.7 209
14 21.06 СЗ 5 н/о н/о +19.3 +10.6 57 +20 +20 1020.9 1017.7 191
15 21.06 СЗ 4 н/о н/о +19.4 +10.0 55 +20 +20 1020.9 1017.8 204
16 21.06 СЗ 4 н/о н/о +19.1 +9.5 54 +20 +20 1021.0 1017.9 141
17 21.06 СЗ 4 н/о н/о +19.0 +8.4 50 +20 +20 1021.4 1018.2 120
18 21.06 СЗ 4
{7}
н/о н/о +18.5 +7.8 50 +19 +19 1021.6 1018.5 +19.8 83
19 21.06 С 4 н/о н/о +17.4 +8.4 55 +17 +17 1022.0 1018.8 43
20 21.06 С 3 н/о н/о +15.4 +9.0 66 +15 +15 1022.2 1019.1 10
21 21.06 С 2 н/о н/о +14.1 +9.8 75 +14 +14 1022.8 1019.6
22 21.06 С 2 н/о н/о +12.8 +10.3 85 +12 +12 1023.2 1020.0
23 21.06 С 1 н/о н/о +10.8 +9.8 94 +10 +10 1023.6 1020.4
00 22.06 С 1 н/о н/о +9.7 +9.5 99 +9 +9 1023.6 1020.4 194
01 22.06 СВ 1 н/о н/о +9.4 +9.0 97 +9 +9 1023.5 1020.3
02 22.06 СВ 1 н/о н/о +9.7 +9.3 97 +9 +9 1023.3 1020.0
03 22.06 СВ 1 н/о н/о +8.9 +8.9 100 +8 +8 1023.2 1019.9
04 22.06 СВ 1 н/о н/о +8.9 +8.9 100 +8 +8 1023.1 1019.9
05 22.06 СВ 2 н/о н/о +11.8 +11.3 97 +11 +11 1023.1 1019.9 12
06 22.06 СВ 2
{3}
н/о н/о +14.0 +11.6 85 +13 +13 1023.1 1019.9 +8.8 43
07 22.06 СВ 3 н/о н/о +15.4 +11.6 78 +15 +15 1023.0 1019.8 82
08 22.06 СВ 3 н/о н/о +16.7 +12.5 76 +16 +16 1022.6 1019.4 121
09 22.06 В 3 н/о н/о +17.9 +10.9 64 +18 +18 1022.3 1019.2 172
10 22.06 В 2 н/о н/о +19.1 +11.0 59 +21 +21 комфорт 1022.1 1018.9 207
11 22.06 СВ 3 н/о н/о +19.6 +12.0 61 +21 +21 комфорт 1021.7 1018.6 205
12 22.06 СВ 3 н/о н/о +20.7 +11.2 54 +23 +23 комфорт 1021.7 1018.6 164
13 22.06 СВ 2 н/о н/о +20.5 +10.6 53 +23 +23 комфорт 1021.3 1018.2 175
14 22.06 СВ 2 н/о н/о +20.9 +10.8 52 +23 +23 комфорт 1020.8 1017.7 146
15 22.06 В 3 н/о н/о +21.8 +11.7 53 +24 +24 комфорт 1020.2 1017.1 198
16 22.06 В 3 н/о н/о +21.6 +11.8 54 +24 +24 комфорт 1019.8 1016.7 148
17 22.06 СВ 5 н/о н/о +21.5 +13.4 60 +24 +24 комфорт 1019.3 1016.2 111
18 22.06 С 5
{7}
н/о н/о +20.3 +13.5 65 +22 +22 комфорт 1019.3 1016.2 +22.1 76
19 22.06 С 4 н/о н/о +19.4 +13.1 67 +21 +21 комфорт 1019.5 1016.4 38
20 22.06 С 4 н/о н/о +18.0 +12.3 69 +18 +18 1019.8 1016.7 9
21 22.06 С 3 н/о н/о +16.7 +13.0 79 +16 +16 1020.1 1016.9
22 22.06 С 2 н/о н/о +16.0 +13.6 86 +16 +16 1020.1 1016.9
23 22.06 СВ 2 н/о н/о +15.3 +13.8 91 +15 +15 1019.6 1016.4
00 23.06 СВ 2 н/о н/о +15.5 +14.0 91 +15 +15 1019.5 1016.3 191
01 23.06 СВ 2 н/о н/о +15.0 +13.9 93 +15 +15 1019.1 1015.9
02 23.06 СВ 2 н/о н/о +14.6 +13.7 94 +14 +14 1018.9 1015.7
03 23.06 СВ 2 н/о н/о +14.3 +13.5 95 +14 +14 1018.8 1015.6
04 23.06 СВ 2 н/о н/о +14.1 +13.3 95 +14 +14 1018.8 1015.6
05 23.06 СВ 2 н/о н/о +15.7 +14.2 91 +16 +16 1018.7 1015.6 13
06 23.06 В 2
{5}
н/о н/о +16.3 +14.2 87 +16 +16 1018.6 1015.5 +13.9 29
07 23.06 В 2 н/о н/о +18.5 +14.8 79 +20 +20 1018.3 1015.2 74
08 23.06 В 2 н/о н/о +20.4 +16.0 76 +24 +24 комфорт 1018.2 1015.1 106
09 23.06 В 3 н/о н/о +22.5 +17.0 71 +27 +27 душно 1017.9 1014.9 161
10 23.06 В 4 н/о н/о +24.3 +17.1 64 +28 +28 душно 1017.6 1014.5 199
11 23.06 В 4 н/о н/о +25.5 +16.6 58 +29 +29 душно 1017.3 1014.3 214
12 23.06 В 5 н/о н/о +26.4 +16.7 55 +30 +30 душно 1016.9 1013.9 221
13 23.06 В 4 н/о н/о +27.1 +16.7 53 +31 +31 душно 1016.4 1013.4 216
14 23.06 ЮВ 4 н/о н/о +27.9 +16.2 49 +31 +31 душно 1016.0 1013.0 188
15 23.06 ЮВ 3 н/о н/о +27.9 +16.6 50 +31 +31 душно 1015.6 1012.6 137
16 23.06 В 4 н/о н/о +28.0 +16.9 51 +32 +32 душно 1015.2 1012.2 137
17 23.06 В 5 н/о н/о +27.4 +16.9 53 +31 +31 душно 1014.8 1011.8 56
18 23.06 В 4
{8}
н/о н/о +27.2 +17.8 56 +31 +31 душно 1015.0 1012.0 +28.4 42
19 23.06 В 3 н/о н/о +26.6 +18.2 60 +31 +31 душно 1015.1 1012.1 27
20 23.06 ЮВ 2 н/о н/о +25.3 +18.4 66 +30 +30 душно 1015.4 1012.4 5
21 23.06 ЮВ 2 н/о н/о +24.5 +18.6 70 +29 +29 душно 1016.0 1012.9
22 23.06 штиль 0 н/о н/о +22.7 +19.0 80 +29 +29 очень
душно
1016.4 1013.3
23 23.06 В 2 н/о н/о +22.9 +18.9 78 +29 +29 очень
душно
1016.6 1013.6
00 24.06 В 2 н/о н/о +22.5 +17.8 75 +28 +28 душно 1016.4 1013.3 183
01 24.06 ЮВ 1 н/о н/о +21.0 +17.4 80 +26 +26 душно 1016.4 1013.3
02 24.06 В 2 н/о н/о +20.7 +17.3 81 +25 +25 комфорт 1015.8 1012.7
03 24.06 В 1 н/о н/о +19.8 +17.1 84 +23 +23 комфорт 1015.9 1012.8
04 24.06 В 2 н/о н/о +19.6 +17.0 85 +22 +22 комфорт 1015.6 1012.5
05 24.06 ЮВ 1 н/о н/о +20.1 +17.5 85 +24 +24 комфорт 1016.0 1013.0 8
06 24.06 н/о +19.2 4
09 24.06 н/о
10 24.06 н/о 121
11 24.06 Ю 3 н/о н/о +29.4 +18.8 53 +35 +35 очень
душно
1016.6 1013.7 203
12 24.06 ЮЗ 5 н/о н/о +30.0 +18.4 50 +35 +35 очень
душно
1017.2 1014.2 218
13 24.06 ЮЗ 4 н/о н/о +29.5 +18.8 53 +35 +35 очень
душно
1017.3 1014.3 210
14 24.06 З 3 н/о н/о +29.8 +20.0 56 +36 +36 очень
душно
1017.4 1014.4 196
15 24.06 З 6 н/о н/о +28.2 +20.3 62 +35 +35 очень
душно
1017.5 1014.5 134
16 24.06 С 4 н/о н/о +26.4 +19.8 67 +32 +32 очень
душно
1017.4 1014.4 103
17 24.06 С 2 н/о н/о +26.3 +18.8 63 +31 +31 душно 1017.4 1014.4 72
18 24.06 С 3
{9}
н/о н/о +25.2 +18.4 66 +30 +30 душно 1017.2 1014.1 +30.1 37
19 24.06 СВ 2 н/о н/о +24.4 +18.6 70 +29 +29 душно 1017.4 1014.4 24
20 24.06 С 2 н/о н/о +23.1 +18.8 77 +29 +29 очень
душно
1017.6 1014.5 5
21 24.06 СЗ 3 н/о н/о +20.8 +18.4 86 +25 +25 комфорт 1017.8 1014.8
22 24.06 СЗ 3 н/о н/о +19.2 +17.4 89 +21 +21 комфорт 1017.7 1014.6
23 24.06 С 2 н/о н/о +18.4 +16.8 90 +20 +20 1017.4 1014.3
00 25.06 С 2 н/о н/о +18.3 +16.7 90 +19 +19 1017.0 1013.9 172
01 25.06 С 2 н/о н/о +18.2 +16.9 92 +19 +19 1016.3 1013.2

 

Местоположение метеостанции Бейтем (Бельгия): широта 50.90 долгота 3.12 высота над уровнем моря 22 м.

В архиве по умолчанию представлена погода в Бейтеме за последнюю неделю. Архивные данные за месяц целиком и за предыдущие месяцы, начиная с января 2011 года, Вы можете получить, выбрав интересующий диапазон дат из раскрывающегося списка и нажав кнопку "Ввод!".


*Определитесь, кто Вы:
робот инопланетянин человек

Внимание! Время в таблицах - всемирное. Для получения местного времени необходимо прибавить поправку, которая равна 1 ч.

Смотрите также архив погоды в соседних городах и на ближайших метеорологических станциях:

Погода в Лилле (Франция) (37 км)
Погода в Остенде (Бельгия) (38 км)
Погода в Коксейде (Бельгия) (39 км)
Погода в Семмерзэйке (Бельгия) (39 км)
Погода в Зебрюгге (Бельгия) (48 км)
Погода в Мелле (Бельгия) (50 км)
Погода в Цадзанде (Нидерланды) (56 км)
Погода в Дюнкерке (Франция) (58 км)
Погода в Генте (Бельгия) (58 км)
Погода в Шьевре (Бельгия) (62 км)

Пояснения к столбцам:

Ветер - указаны скорость ветра в м/с - средняя за 10 мин, порывы в срок и между сроками (в фигурных скобках) и направление, откуда дует ветер: С - северный, СВ - северо-восточный, В - восточный, ЮВ - юго-восточный, Ю - южный, ЮЗ - юго-западный, З - западный, СЗ - северо-западный.
Видимость - горизонтальная дальность видимости в метрах или километрах. При видимости от 1 до 10 км при отсутствии осадков обычно наблюдается дымка, при ухудшении видимости до 1 км и менее - туман. В сухую погоду видимость может ухудшаться дымом, пылью или мглою.
Явления - указаны атмосферные явления, наблюдавшиеся в срок или в последний час перед сроком; фигурными скобками обозначены явления, наблюдавшиеся между сроками (за 1-3 часа до срока); квадратными скобками обозначены град или гололедные отложения с указанием их диаметра в мм.
Облачность - указаны через наклонную черту общая и нижняя облачность в баллах и высота нижней границы облаков в метрах; квадратными скобками обозначены формы облаков: Ci - перистые, Cs - перисто-слоистые, Cc - перисто-кучевые, Ac - высококучевые, As - высокослоистые, Sc - слоисто-кучевые, Ns - слоисто-дождевые, Cu - кучевые, Cb - кучево-дождевые. Подробнее классификацию облаков см. в Атласе облаков (PDF).
T - Температура воздуха - температура, измеренная на высоте 2 м над землей.
Td - Температура точки росы - температура, при понижении до которой содержащийся в воздухе водяной пар достигнет насыщения.
f - Относительная влажность воздуха - влажноcть воздуха, измеренная на высоте 2 м над землей.
Te - Эффективная температура - температура, которую ощущает одетый по сезону человек в тени. Характеристика душности погоды. При расчете учитывается влияние влажности воздуха и скорости ветра на теплоощущения человека.
Tes - Эффективная температура на солнце - температура, которую ощущает человек, с поправкой на солнечный нагрев. Характеристика знойности погоды. Зависит от высоты солнца над горизонтом, облачности и скорости ветра. Ночью, в пасмурную погоду, а также при ветре 12 м/с и более поправка равна нулю.
P - Атмосферное давление - приведенное к уровню моря атмосферное давление.
Po - Атмосферное давление - измеренное на уровне метеостанции атмосферное давление.
Tmin - Минимальная температура - минимум температуры воздуха на высоте 2 м над землей.
Tmax - Максимальная температура - максимум температуры воздуха на высоте 2 м над землей.
R - Количество осадков - Количество выпавших осадков за период времени, мм. При наведении курсора мыши на число - период времени, за который выпало указанное количество осадков.
R24 - Количество осадков - Количество выпавших осадков за 24 часа, мм.
S - Снежный покров - Высота снежного покрова, см. При наведении курсора мыши на число - состояние снежного покрова и степень покрытия местности в баллах.